#timestamp,LO_Frequency,Hit,StdDev 
1577214015.7,286047012.1,N
1577214035.5,286047006.3,N
1577214055.3,286047003.6,N
1577214075.2,286047004.3,N
1577214095.0,286046996.4,N
1577214095.9,286046996.4,N
1577214115.8,286046996.0,N
1577214135.6,286046997.2,N
1577214155.4,286046993.4,N
1577214175.3,286046994.2,N
1577214195.1,286046988.7,N
1577214215.9,286046992.6,N
1577214235.7,286046986.3,N
1577214255.5,286046994.2,N
1577214275.4,286046994.3,N
1577214295.2,286047000.2,N
1577214315.0,286047000.5,N
1577214315.9,286047000.5,N
1577214335.8,286046997.3,N
1577214355.6,286046998.6,N
1577214375.5,286047000.0,N
1577214395.3,286046996.0,N
1577214415.1,286046992.9,N
1577214435.9,286047004.3,N
1577214455.7,286047007.2,N
1577214475.5,286046995.1,N
1577214495.4,286046994.3,N
1577214515.2,286046991.2,N
1577214535.1,286046983.8,N
1577214536.0,286046983.8,N
1577214555.8,286046991.8,N
1577214575.6,286046992.2,N
1577214595.5,286046995.3,N
1577214615.3,286046993.2,N
1577214635.1,286046986.9,N
1577214655.9,286046992.8,N
1577214675.7,286046994.8,N
1577214695.6,286046991.4,N
1577214715.4,286046986.8,N
1577214735.2,286046982.1,Y
1577214755.1,286046996.0,P
1577214756.0,286046996.0,P
1577214775.8,286046996.1,P
1577214795.7,286046998.5,N
1577214815.5,286047006.3,Y
1577214835.3,286047005.0,P
1577214855.2,286047003.7,N
1577214875.0,286047002.2,N
1577214875.9,286047002.2,N
1577214925.8,286047004.5,E
1577214935.7,286047001.5,N
1577214955.5,286046996.8,P
1577214975.4,286046993.9,N
1577214995.2,286046992.8,N
1577215015.0,286047003.5,N
1577215016.0,286047003.5,N
1577215035.8,286047013.6,Y
1577215055.6,286047005.1,P
1577215075.5,286046999.7,N
1577215095.3,286047003.3,N
1577215115.1,286046997.1,N
1577215135.9,286046992.0,N
1577215155.7,286046991.6,N
1577215175.6,286047000.2,N
1577215195.4,286047008.7,N
1577215215.2,286047003.1,N
1577215235.1,286047000.7,N
1577215236.0,286047000.7,N
1577215255.8,286047002.7,N
1577215275.6,286047001.1,N
1577215295.5,286047004.0,N
1577215315.3,286046999.9,N
1577215335.2,286047000.1,N
1577215355.9,286046990.8,N
1577215375.7,286046989.2,N
1577215395.6,286046990.0,N
1577215415.4,286046986.7,N
1577215435.2,286046987.5,N
1577215455.1,286047002.9,N
1577215456.0,286047002.9,N
1577215475.8,286047002.6,N
1577215495.7,286046995.8,N
1577215515.5,286046991.2,N
1577215535.3,286046994.3,N
1577215555.2,286046994.6,N
1577215575.0,286046990.4,N
1577215575.9,286046990.4,N
1577215595.7,286046994.8,N
1577215615.6,286046993.3,N
1577215635.4,286046992.5,N
1577215655.3,286046993.3,N
1577215675.1,286046993.0,N
1577215695.8,286046993.5,N
1577215715.7,286046992.2,N
1577215735.5,286046986.8,N
1577215755.4,286046981.6,Y
1577215775.2,286046996.2,P
1577215795.0,286047003.0,P
1577215795.9,286047003.0,N
1577215815.8,286046993.8,N
1577215835.6,286046994.3,N
1577215855.5,286046997.5,N
1577215875.3,286047005.6,N
1577215895.1,286047005.8,N
1577215915.9,286047003.2,N
1577215935.7,286046998.7,N
1577215955.5,286047000.9,N
1577215975.4,286046993.3,N
1577215995.2,286046996.0,N
1577216015.1,286046998.9,N
1577216016.0,286046998.9,N
1577216035.8,286046996.7,N
1577216055.6,286046999.2,N
1577216075.5,286047006.8,N
1577216095.3,286047000.5,N
1577216115.1,286046998.6,N
1577216135.9,286046998.5,N
1577216155.7,286047000.4,N
1577216175.6,286046999.2,N
1577216195.4,286047002.5,N
1577216215.2,286046998.2,N
1577216235.1,286046999.1,N
1577216236.0,286046999.1,N
1577216255.8,286047010.0,N
1577216275.7,286047008.6,N
1577216295.5,286047001.7,N
1577216315.3,286046997.6,N
1577216335.2,286047005.2,N
1577216355.0,286047007.5,N
1577216386.0,286047003.2,E
1577216395.9,286047001.2,N
1577216415.7,286047004.7,P
1577216435.6,286047014.7,P
1577216455.4,286047020.3,Y
1577216475.2,286047011.5,P
1577216495.1,286047008.9,P
1577216496.0,286047008.9,P
1577216515.8,286047014.7,Y
1577216535.6,286046999.4,P
1577216555.5,286046986.8,N
1577216575.3,286046986.2,N
1577216595.2,286046987.6,N
1577216615.9,286046980.9,N
1577216635.7,286046979.9,N
1577216655.6,286046979.0,N
1577216675.4,286046988.5,N
1577216695.2,286046992.0,N
1577216715.1,286046998.5,N
1577216716.0,286046998.5,N
1577216735.8,286046991.5,N
1577216755.7,286046985.5,N
1577216775.5,286046987.2,N
1577216795.3,286046988.4,N
1577216815.2,286046984.3,N
1577216835.0,286046999.2,N
1577216835.9,286046999.2,N
1577216855.8,286047006.0,N
1577216875.6,286046999.3,N
1577216895.4,286046994.9,N
1577216915.3,286046996.8,N
1577216935.2,286046995.1,N
1577216955.0,286046989.7,N
1577216955.9,286046989.7,N
1577216975.8,286046989.5,N
1577216995.6,286046989.7,N
1577217015.4,286046984.1,N
1577217035.3,286046981.7,N
1577217055.1,286046977.9,N
1577217075.9,286046982.3,N
1577217095.7,286046974.2,Y
1577217115.5,286046994.8,P
1577217135.4,286046989.6,P
1577217155.2,286046989.4,P
1577217175.1,286046989.6,Y
1577217176.0,286046989.6,P
1577217195.8,286047006.0,P
1577217215.6,286047003.1,N
1577217235.5,286046997.1,N
1577217255.3,286046991.7,N
1577217275.2,286046993.7,N
1577217295.9,286046998.4,N
1577217315.7,286046994.0,N
1577217335.6,286046995.7,N
1577217355.4,286047002.7,N
1577217375.2,286047002.4,N
1577217395.1,286046999.0,N
1577217396.0,286046999.0,N
1577217415.8,286047000.9,N
1577217435.7,286046995.2,N
1577217455.5,286046998.9,N
1577217475.3,286047004.2,N
1577217495.2,286046996.4,N
1577217515.0,286046989.8,N
1577217515.9,286046989.8,N
1577217535.8,286046986.3,N
1577217555.6,286046986.7,N
1577217575.4,286046986.0,N
1577217595.3,286046986.1,N
